This is the latest recevied weather packets stored in our database for station/object N3MFL. If no packets are shown the sender has not sent any weather packets the latest 10 day(s).
| Time | Temp. | Humidity | Pressure | Rain* | Wind** | Luminosity | Snow |
|---|---|---|---|---|---|---|---|
| 1777545470 | 7.78° C | 97% | 1008.4 hPa | 0 mm | - | 14 W/m² | - |
| 1777545167 | 7.78° C | 97% | 1008.3 hPa | 0 mm | - | 17 W/m² | - |
| 1777544865 | 7.78° C | 97% | 1008.3 hPa | 0 mm | - | 16 W/m² | - |
| 1777544560 | 7.78° C | 97% | 1008.4 hPa | 0 mm | - | 11 W/m² | - |
| 1777544257 | 7.78° C | 97% | 1008.2 hPa | 0 mm | - | 11 W/m² | - |
| 1777543954 | 7.78° C | 97% | 1008.2 hPa | 0 mm | - | 9 W/m² | - |
| 1777543651 | 7.78° C | 97% | 1008.2 hPa | 0 mm | - | 7 W/m² | - |
| 1777543042 | 7.78° C | 97% | 1008.6 hPa | 0 mm | - | 3 W/m² | - |
| 1777542738 | 7.78° C | 97% | 1008.7 hPa | 0 mm | - | 1 W/m² | - |
| 1777542436 | 7.78° C | 97% | 1008.6 hPa | 0 mm | - | 1 W/m² | - |
| 1777542132 | 7.78° C | 97% | 1008.8 hPa | 0 mm | - | 1 W/m² | - |
| 1777541829 | 7.78° C | 97% | 1008.8 hPa | 0 mm | - | 0 W/m² | - |
| 1777541527 | 7.78° C | 97% | 1008.9 hPa | 1.78 mm | - | 0 W/m² | - |
| 1777541223 | 7.78° C | 97% | 1008.6 hPa | 1.78 mm | - | 0 W/m² | - |
| 1777540010 | 7.78° C | 97% | 1008.8 hPa | 1.27 mm | - | 0 W/m² | - |
| 1777539705 | 7.78° C | 97% | 1008.8 hPa | 1.27 mm | - | 0 W/m² | - |
| 1777539099 | 7.78° C | 97% | 1008.9 hPa | 0 mm | - | 0 W/m² | - |
| 1777538795 | 7.78° C | 97% | 1008.9 hPa | 0 mm | - | 0 W/m² | - |
| 1777538191 | 7.78° C | 97% | 1008.9 hPa | 1.78 mm | - | 0 W/m² | - |
| 1777537886 | 7.78° C | 97% | 1008.8 hPa | 1.78 mm | - | 0 W/m² | - |
| 1777537583 | 7.78° C | 97% | 1009.2 hPa | 0 mm | - | 0 W/m² | - |
| 1777537279 | 7.78° C | 97% | 1009.4 hPa | 1.27 mm | - | 0 W/m² | - |
| 1777536975 | 7.78° C | 97% | 1009.5 hPa | 1.27 mm | - | 0 W/m² | - |
| 1777536673 | 7.78° C | 97% | 1009.5 hPa | 0 mm | - | 0 W/m² | - |
| 1777536370 | 7.78° C | 96% | 1009.6 hPa | 0 mm | - | 0 W/m² | - |
* Rain latest hour (hover to see other rain measurements)
** Current wind speed in m/s (hover to see current wind gust speed)